1359590432090,1.49922
1359590492090,1.50504
1359590552090,1.51862
1359590612090,1.50762
1359590672090,1.53222
1359590732090,1.52421
1359590792090,1.50177
1359590852090,1.50757
1359590912090,1.48939
1359590972090,1.49870
1359591032090,1.49561
1359591092090,1.53623
1359591152090,1.51166
1359591212090,1.49207
1359591272090,1.48495
1359591332090,1.49077
1359591392090,1.51047
1359591452090,1.50825
1359591512090,1.49592
1359591572090,1.50242
1359591632090,1.49805
1359591692090,1.50731
1359591752090,1.48702
1359591812090,1.50065
1359591872090,1.48259
1359591932090,1.52672
1359591992090,1.49999
1359592052090,1.51162
1359592112090,1.50094
1359592172090,1.49926
1359592232090,1.50023
1359592292090,1.52720
1359592352090,1.50447
1359592412090,1.48467
1359592472090,1.49175
1359592532090,1.48388
1359592592090,1.51269
1359592652090,1.51228
1359592712090,1.49583
1359592772090,1.51332
1359592832090,1.49882
1359592892090,1.48015
1359592952090,1.51230
1359593012090,1.51876
1359593072090,1.50239
1359593132090,1.51614
1359593192090,1.50015
1359593252090,1.52303
1359593312090,1.49210
1359593372090,1.49151
1359593432090,1.48731
1359593492090,1.49635
1359593552090,1.50234
1359593612090,1.48657
1359593672090,1.48849
1359593732090,1.51498
1359593792090,1.53512
1359593852090,1.48696
1359593912090,1.49931
1359593972090,1.51749
1359594032101,1.52780
1359594092101,1.51063
1359594152101,1.50266
1359594212101,1.49935
1359594272101,1.48286
1359594332101,1.49545
1359594392101,1.50697
1359594452101,1.52402
1359594512101,1.49502
1359594572101,1.49990
1359594632101,1.49798
1359594692101,1.51688
1359594752101,1.49582
1359594812101,1.50948
1359594872101,1.50414
1359594932101,1.48654
1359594992101,1.50481
1359595052101,1.50251
1359595112101,1.49614
1359595172101,1.51126
1359595232101,1.50063
1359595292101,1.52995
1359595352101,1.48610
1359595412101,1.49116
1359595472101,1.50154
1359595532101,1.51681
1359595592101,1.50228
1359595652101,1.50919
1359595712101,1.51385
1359595772101,1.51335
1359595832101,1.50625
1359595892101,1.51545
1359595952101,1.50772
1359596012101,1.49883
1359596072101,1.50573
1359596132101,1.50207
1359596192101,1.50818
1359596252101,1.50754
1359596312101,1.49479
1359596372101,1.50156
1359596432101,1.49722
1359596492101,1.49072
1359596552101,1.50226
1359596612101,1.50008
1359596672101,1.48384
1359596732101,1.49377
1359596792101,1.52451
1359596852101,1.49155
1359596912101,1.50552
1359596972101,1.50832
1359597032101,1.52084
1359597092101,1.50004
1359597152101,1.49869
1359597212101,1.50910
1359597272101,1.50080
1359597332101,1.50376
1359597392101,1.50249
1359597452101,1.50875
1359597512101,1.50684
1359597572101,1.49548
1359597632111,1.50947
1359597692111,1.50861
1359597752111,1.50538
1359597812111,1.51052
1359597872111,1.51120
1359597932111,1.53171
1359597992111,1.51409
1359598052111,1.48477
1359598112111,1.50595
1359598172111,1.48949
1359598232111,1.48439
1359598292111,1.49560
1359598352111,1.49685
1359598412111,1.50566
1359598472111,1.50477
1359598532111,1.50041
1359598592111,1.49271
1359598652111,1.49523
1359598712111,1.49070
1359598772111,1.52336
1359598832111,1.49682
1359598892111,1.50196
1359598952111,1.50521
1359599012111,1.49625
1359599072111,1.50441
1359599132111,1.49924
1359599192111,1.49751
1359599252111,1.49318
1359599312111,1.49976
1359599372111,1.48842
1359599432111,1.49593
1359599492111,1.50312
1359599552111,1.50186
1359599612111,1.50137
1359599672111,1.48921
1359599732111,1.50660
1359599792111,1.51326
1359599852111,1.49352
1359599912111,1.51056
1359599972111,1.49288
1359600032111,1.53232
1359600092111,1.51781
1359600152111,1.51317
1359600212111,1.60440
1359600272111,1.51020
1359600332111,1.48556
1359600392111,1.50674
1359600452111,1.51074
1359600512111,1.50663
1359600572111,1.51705
1359600632111,1.51694
1359600692111,1.49988
1359600752111,1.51001
1359600812111,1.49867
1359600872111,1.49419
1359600932111,1.50500
1359600992111,1.52241
1359601052111,1.50039
1359601112111,1.51189
1359601172111,1.50908
1359601232122,1.50597
1359601292122,1.50932
1359601352122,1.50915
1359601412122,1.50646
1359601472122,1.50111
1359601532122,1.52433
1359601592122,1.48695
1359601652122,1.51485
1359601712122,1.50258
1359601772122,1.49751
1359601832122,1.51258
1359601892122,1.50495
1359601952122,1.50436
1359602012122,1.51586
1359602072122,1.50299
1359602132122,1.50299
1359602192122,1.51755
1359602252122,1.50620
1359602312122,1.48931
1359602372122,1.49744
1359602432122,1.53654
1359602492122,1.47738
1359602552122,1.50428
1359602612122,1.52188
1359602672122,1.51675
1359602732122,1.52543
1359602792122,1.51349
1359602852122,1.50935
1359602912122,1.50303
1359602972122,1.52638
1359603032122,1.51542
1359603092122,1.50959
1359603152122,1.52091
1359603212122,1.50346
1359603272122,1.52704
1359603332122,1.53175
1359603392122,1.50466
1359603452122,1.50226
1359603512122,1.51971
1359603572122,1.64705
1359603632122,1.50892
1359603692122,1.53228
1359603752122,1.52170
1359603812122,1.59915
1359603872122,1.53247
1359603932122,1.52931
1359603992122,1.49612
1359604052122,1.52930
1359604112122,1.50794
1359604172122,1.53413
1359604232122,1.52501
1359604292122,1.52249
1359604352122,1.51922
1359604412122,1.52393
1359604472122,1.50901
1359604532122,1.52530
1359604592122,1.53900
1359604652122,1.53801
1359604712122,1.50712
1359604772122,1.50611
1359604832133,1.53516
1359604892133,1.53494
1359604952133,1.51113
1359605012133,1.52889
1359605072133,1.53851
1359605132133,1.53026
1359605192133,1.53454
1359605252133,1.51933
1359605312133,1.50713
1359605372133,1.51410
1359605432133,1.51205
1359605492133,1.53191
1359605552133,1.53458
1359605612133,1.50773
1359605672133,1.53828
1359605732133,1.52300
1359605792133,1.51010
1359605852133,1.52538
1359605912133,1.49877
1359605972133,1.51999
1359606032133,1.53229
1359606092133,1.54411
1359606152133,1.52120
1359606212133,1.53024
1359606272133,1.51706
1359606332133,1.50729
1359606392133,1.51086
1359606452133,1.50227
1359606512133,1.51314
1359606572133,1.49713
1359606632133,1.54030
1359606692133,1.51754
1359606752133,1.53805
1359606812133,1.52939
1359606872133,1.53648
1359606932133,1.53754
1359606992133,1.53054
1359607052133,1.53467
1359607112133,1.55446
1359607172133,1.53879
1359607232133,1.53018
1359607292133,1.52227
1359607352133,1.51157
1359607412133,1.53615
1359607472133,1.53511
1359607532133,1.52049
1359607592133,1.53270
1359607652133,1.53219
1359607712133,1.52859
1359607772133,1.53045
1359607832133,1.51841
1359607892133,1.52874
1359607952133,1.47810
1359608012133,1.53202
1359608072133,1.53340
1359608132133,1.49311
1359608192133,1.51832
1359608252133,1.54113
1359608312133,1.50680
1359608372133,1.51702
1359608432144,1.52656
1359608492144,1.52873
1359608552144,1.51908
1359608612144,1.54521
1359608672144,1.52196
1359608732144,1.54059
1359608792144,1.52984
1359608852144,1.51360
1359608912144,1.63837
1359608972144,1.52186
1359609032144,1.54651
1359609092144,1.53798
1359609152144,1.54325
1359609212144,1.51764
1359609272144,1.53229
1359609332144,1.52793
1359609392144,1.51941
1359609452144,1.53066
1359609512144,1.53697
1359609572144,1.53012
1359609632144,1.51656
1359609692144,1.52963
1359609752144,1.53628
1359609812144,1.52933
1359609872144,1.53109
1359609932144,1.52357
1359609992144,1.52271
1359610052144,1.53488
1359610112144,1.51291
1359610172144,1.50581
1359610232144,1.52178
1359610292144,1.52948
1359610352144,1.54437
1359610412144,1.53903
1359610472144,1.53180
1359610532144,1.53816
1359610592144,1.52534
1359610652144,1.55285
1359610712144,1.51555
1359610772144,1.51814
1359610832144,1.53056
1359610892144,1.54006
1359610952144,1.52725
1359611012144,1.51723
1359611072144,1.54581
1359611132144,1.53429
1359611192144,1.52531
1359611252144,1.52401
1359611312144,1.52649
1359611372144,1.54405
1359611432144,1.53472
1359611492144,1.54128
1359611552144,1.54660
1359611612144,1.56114
1359611672144,1.54176
1359611732144,1.53065
1359611792144,1.53255
1359611852144,1.53606
1359611912144,1.55604
1359611972144,1.54614
1359612032156,1.55663
1359612092156,1.55604
1359612152156,1.54783
1359612212156,1.55893
1359612272156,1.54824
1359612332156,1.55992
1359612392156,1.54211
1359612452156,1.54019
1359612512156,1.54520
1359612572156,1.55309
1359612632156,1.55189
1359612692156,1.54859
1359612752156,1.52976
1359612812156,1.55717
1359612872156,1.53974
1359612932156,1.54542
1359612992156,1.55402
1359613052156,1.58884
1359613112156,1.56390
1359613172156,1.56247
1359613232156,1.55358
1359613292156,1.56458
1359613352156,1.56332
1359613412156,1.54263
1359613472156,1.56789
1359613532156,1.55072
1359613592156,1.54671
1359613652156,1.56913
1359613712156,1.56160
1359613772156,1.54443
1359613832156,1.55609
1359613892156,1.56358
1359613952156,1.57248
1359614012156,1.56412
1359614072156,1.56176
1359614132156,1.55953
1359614192156,1.59822
1359614252156,1.58109
1359614312156,1.54140
1359614372156,1.58615
1359614432156,1.57385
1359614492156,1.58097
1359614552156,1.58245
1359614612156,1.55624
1359614672156,1.56415
1359614732156,1.57725
1359614792156,1.57805
1359614852156,1.57390
1359614912156,1.57789
1359614972156,1.59550
1359615032156,1.56122
1359615092156,1.57557
1359615152156,1.56123
1359615212156,1.56622
1359615272156,1.58059
1359615332156,1.59271
1359615392156,1.58970
1359615452156,1.59345
1359615512156,1.59636
1359615572156,1.58395
1359615632167,1.57116
1359615692167,1.57117
1359615752167,1.57650
1359615812167,1.59478
1359615872167,1.57350
1359615932167,1.58185
1359615992167,1.56439
1359616052167,1.59817
1359616112167,1.58054
1359616172167,1.60200
1359616232167,1.56948
1359616292167,1.59409
1359616352167,1.59244
1359616412167,1.57856
1359616472167,1.59501
1359616532167,1.58545
1359616592167,1.58889
1359616652167,1.60192
1359616712167,1.61160
1359616772167,1.67086
1359616832167,1.59415
1359616892167,1.58667
1359616952167,1.62419
1359617012167,1.59572
1359617072167,1.60857
1359617132167,1.58928
1359617192167,1.59481
1359617252167,1.57936
1359617312167,1.60370
1359617372167,1.60452
1359617432167,1.58371
1359617492167,1.60414
1359617552167,1.61654
1359617612167,1.59734
1359617672167,1.61360
1359617732167,1.57419
1359617792167,1.60666
1359617852167,1.59043
1359617912167,1.60950
1359617972167,1.62014
1359618032167,1.60325
1359618092167,1.61156
1359618152167,1.60092
1359618212167,1.62780
1359618272167,1.59511
1359618332167,1.63082
1359618392167,1.60860
1359618452167,1.60404
1359618512167,1.62509
1359618572167,1.61998
1359618632167,1.62116
1359618692167,1.63133
1359618752167,1.60088
1359618812167,1.62485
1359618872167,1.59683
1359618932167,1.61831
1359618992167,1.61030
1359619052167,1.59370
1359619112167,1.61703
1359619172167,1.61232
1359619232179,1.61878
1359619292179,1.61774
1359619352179,1.63007
1359619412179,1.61372
1359619472179,1.62394
1359619532179,1.59535
1359619592179,1.63086
1359619652179,1.64007
1359619712179,1.61908
1359619772179,1.61299
1359619832179,1.61406
1359619892179,1.63593
1359619952179,1.60265
1359620012179,1.60031
1359620072179,1.62454
1359620132179,1.61076
1359620192179,1.61352
1359620252179,1.63344
1359620312179,1.61131
1359620372179,1.60824
1359620432179,1.62627
1359620492179,1.59704
1359620552179,1.59780
1359620612179,1.62057
1359620672179,1.61688
1359620732179,1.60060
1359620792179,1.62494
1359620852179,1.69621
1359620912179,1.63075
1359620972179,1.61390
1359621032179,1.61050
1359621092179,1.61453
1359621152179,1.61709
1359621212179,1.60937
1359621272179,1.59891
1359621332179,1.60130
1359621392179,1.61813
1359621452179,1.62626
1359621512179,1.60929
1359621572179,1.64073
1359621632179,1.62073
1359621692179,1.60759
1359621752179,1.60560
1359621812179,1.62808
1359621872179,1.61401
1359621932179,1.60579
1359621992179,1.61939
1359622052179,1.63353
1359622112179,1.62485
1359622172179,1.62803
1359622232179,1.62184
1359622292179,1.59190
1359622352179,1.61993
1359622412179,1.63251
1359622472179,1.61915
1359622532179,1.62008
1359622592179,1.60382
1359622652179,1.62915
1359622712179,1.62597
1359622772179,1.66932
1359622832190,1.61294
1359622892190,1.60961
1359622952190,1.60694
1359623012190,1.63099
1359623072190,1.62907
1359623132190,1.61354
1359623192190,1.63090
1359623252190,1.59623
1359623312190,1.59509
1359623372190,1.62973
1359623432190,1.63414
1359623492190,1.63622
1359623552190,1.61688
1359623612190,1.60916
1359623672190,1.62127
1359623732190,1.60629
1359623792190,1.61513
1359623852190,1.61616
1359623912190,1.60113
1359623972190,1.57979
1359624032190,1.62671
1359624092190,1.61286
1359624152190,1.61981
1359624212190,1.58155
1359624272190,1.61039
1359624332190,1.62576
1359624392190,1.63373
1359624452190,1.62120
1359624512190,1.61295
1359624572190,1.60667
1359624632190,1.61393
1359624692190,1.62863
1359624752190,1.59652
1359624812190,1.60275
1359624872190,1.64266
1359624932190,1.62179
1359624992190,1.60179
1359625052190,1.62723
1359625112190,1.60014
1359625172190,1.62417
1359625232190,1.59785
1359625292190,1.59279
1359625352190,1.61353
1359625412190,1.61993
1359625472190,1.60634
1359625532190,1.61333
1359625592190,1.60159
1359625652190,1.60317
1359625712190,1.60704
1359625772190,1.59573
1359625832190,1.60799
1359625892190,1.60122
1359625952190,1.61655
1359626012190,1.62708
1359626072190,1.59839
1359626132190,1.60831
1359626192190,1.57830
1359626252190,1.59669
1359626312190,1.61388
1359626372190,1.61949
1359626432202,1.60534
1359626492202,1.60010
1359626552202,1.59842
1359626612202,1.58736
1359626672202,1.61116
1359626732202,1.59349
1359626792202,1.59301
1359626852202,1.61699
1359626912202,1.59679
1359626972202,1.61523
1359627032202,1.59952
1359627092202,1.59523
1359627152202,1.58670
1359627212202,1.61486
1359627272202,1.57690
1359627332202,1.59623
1359627392202,1.60289
1359627452202,1.58179
1359627512202,1.58385
1359627572202,1.59328
1359627632202,1.57981
1359627692202,1.62131
1359627752202,1.58347
1359627812202,1.58110
1359627872202,1.60124
1359627932202,1.58258
1359627992202,1.59108
1359628052202,1.61130
1359628112202,1.58964
1359628172202,1.59806
1359628232202,1.59582
1359628292202,1.58622
1359628352202,1.58523
1359628412202,1.59009
1359628472202,1.58563
1359628532202,1.59072
1359628592202,1.58330
1359628652202,1.59017
1359628712202,1.59187
1359628772202,1.58494
1359628832202,1.58470
1359628892202,1.58789
1359628952202,1.56855
1359629012202,1.60218
1359629072202,1.58994
1359629132202,1.58989
1359629192202,1.58441
1359629252202,1.60335
1359629312202,1.59332
1359629372202,1.60871
1359629432202,1.58291
1359629492202,1.61491
1359629552202,1.57361
1359629612202,1.59162
1359629672202,1.58253
1359629732202,1.58930
1359629792202,1.58870
1359629852202,1.58127
1359629912202,1.57258
1359629972202,1.60475
1359630032213,1.60820
1359630092213,1.59758
1359630152213,1.57988
1359630212213,1.60652
1359630272213,1.58761
1359630332213,1.59443
1359630392213,1.58954
1359630452213,1.58152
1359630512213,1.56512
1359630572213,1.60404
1359630632213,1.60888
1359630692213,1.56392
1359630752213,1.58810
1359630812213,1.58829
1359630872213,1.58004
1359630932213,1.57793
1359630992213,1.60666
1359631052213,1.57549
1359631112213,1.58976
1359631172213,1.58881
1359631232213,1.57515
1359631292213,1.59454
1359631352213,1.58212
1359631412213,1.57385
1359631472213,1.59632
1359631532213,1.58437
1359631592213,1.59039
1359631652213,1.58708
1359631712213,1.57960
1359631772213,1.58759
1359631832213,1.58504
1359631892213,1.59910
1359631952213,1.60491
1359632012213,1.58282
1359632072213,1.59731
1359632132213,1.57181
1359632192213,1.59882
1359632252213,1.58954
1359632312213,1.59840
1359632372213,1.58459
1359632432213,1.60148
1359632492213,1.58029
1359632552213,1.59263
1359632612213,1.58955
1359632672213,1.58921
1359632732213,1.58356
1359632792213,1.60041
1359632852213,1.59557
1359632912213,1.58975
1359632972213,1.59539
1359633032213,1.57586
1359633092213,1.57406
1359633152213,1.58966
1359633212213,1.60240
1359633272213,1.58599
1359633332213,1.59822
1359633392213,1.59627
1359633452213,1.60166
1359633512213,1.61058
1359633572213,1.58893
1359633632225,1.60121
1359633692225,1.60616
1359633752225,1.61081
1359633812225,1.57207
1359633872225,1.60169
1359633932225,1.60579
1359633992225,1.60907
1359634052225,1.59232
1359634112225,1.60557
1359634172225,1.59341
1359634232225,1.59103
1359634292225,1.58590
1359634352225,1.59952
1359634412225,1.60924
1359634472225,1.60247
1359634532225,1.59233
1359634592225,1.59123
1359634652225,1.60063
1359634712225,1.60156
1359634772225,1.59068
1359634832225,1.57780
1359634892225,1.61927
1359634952225,1.59359
1359635012225,1.59527
1359635072225,1.58814
1359635132225,1.58346
1359635192225,1.58246
1359635252225,1.60355
1359635312225,1.58849
1359635372225,1.60209
1359635432225,1.58120
1359635492225,1.57083
1359635552225,1.58081
1359635612225,1.57595
1359635672225,1.58337
1359635732225,1.58196
1359635792225,1.60919
1359635852225,1.61214
1359635912225,1.56852
1359635972225,1.59767
1359636032225,1.58338
1359636092225,1.60483
1359636152225,1.59538
1359636212225,1.58329
1359636272225,1.59070
1359636332225,1.56682
1359636392225,1.58286
1359636452225,1.58980
1359636512225,1.61879
1359636572225,1.58741
1359636632225,1.58585
1359636692225,1.62329
1359636752225,1.58329
1359636812225,1.60343
1359636872225,1.60918
1359636932225,1.58949
1359636992225,1.59305
1359637052225,1.57536
1359637112225,1.56763
1359637172225,1.58317
1359637232224,1.60325
1359637292224,1.57648
1359637352224,1.58277
1359637412224,1.58527
1359637472224,1.60035
1359637532224,1.58588
1359637592224,1.59996
1359637652224,1.59303
1359637712224,1.59142
1359637772224,1.59411
1359637832224,1.59191
1359637892224,1.58257
1359637952224,1.60283
1359638012224,1.58602
1359638072224,1.59710
1359638132224,1.58665
1359638192224,1.61716
1359638252224,1.57323
1359638312224,1.58498
1359638372224,1.62445
1359638432224,1.58677
1359638492224,1.60687
1359638552224,1.59678
1359638612224,1.49158
1359638672224,1.57508
1359638732224,1.59797
1359638792224,1.59437
1359638852224,1.59584
1359638912224,1.81907
1359638972224,1.59659
1359639032224,1.60563
1359639092224,1.59923
1359639152224,1.58498
1359639212224,1.58807
1359639272224,1.60445
1359639332224,1.61371
1359639392224,1.60667
1359639452224,1.60026
1359639512224,1.59400
1359639572224,1.59648
1359639632224,1.60801
1359639692224,1.58277
1359639752224,1.60310
1359639812224,1.59893
1359639872224,1.59395
1359639932224,1.59999
1359639992224,1.60526
1359640052224,1.60268
1359640112224,1.59867
1359640172224,1.58247
1359640232224,1.61089
1359640292224,1.59611
1359640352224,1.60460
1359640412224,1.58686
1359640472224,1.59188
1359640532224,1.60489
1359640592224,1.59969
1359640652224,1.58987
1359640712224,1.59931
1359640772224,1.61104
1359640832236,1.60030
1359640892236,1.60637
1359640952236,1.60316
1359641012236,1.59458
1359641072236,1.58533
1359641132236,1.58913
1359641192236,1.58787
1359641252236,1.59755
1359641312236,1.59971
1359641372236,1.59797
1359641432236,1.59940
1359641492236,1.60928
1359641552236,1.62173
1359641612236,1.74456
1359641672236,1.60611
1359641732236,1.66493
1359641792236,1.59979
1359641852236,1.56947
1359641912236,1.59856
1359641972236,1.59631
1359642032236,1.59291
1359642092236,1.60954
1359642152236,1.61042
1359642212236,1.58613
1359642272236,1.61128
1359642332236,1.60569
1359642392236,1.60381
1359642452236,1.58707
1359642512236,1.61436
1359642572236,1.59308
1359642632236,1.59517
1359642692236,1.58729
1359642752236,1.62927
1359642812236,1.59858
1359642872236,1.59985
1359642932236,1.61429
1359642992236,1.59744
1359643052236,1.61857
1359643112236,1.62312
1359643172236,1.61520
1359643232236,1.59360
1359643292236,1.59658
1359643352236,1.60222
1359643412236,1.57981
1359643472236,1.59962
1359643532236,1.59285
1359643592236,1.58790
1359643652236,1.62570
1359643712236,1.58591
1359643772236,1.60501
1359643832236,1.61132
1359643892236,1.60784
1359643952236,1.61558
1359644012236,1.58776
1359644072236,1.60088
1359644132236,1.60195
1359644192236,1.59806
1359644252236,1.58066
1359644312236,1.57647
1359644372236,1.59830
1359644432247,1.59749
1359644492247,1.59580
1359644552247,1.58932
1359644612247,1.57108
1359644672247,1.59348
1359644732247,1.58612
1359644792247,1.57916
1359644852247,1.57958
1359644912247,1.59548
1359644972247,1.61150
1359645032247,1.57791
1359645092247,1.61970
1359645152247,1.56498
1359645212247,1.58856
1359645272247,1.60202
1359645332247,1.59897
1359645392247,1.58496
1359645452247,1.58458
1359645512247,1.61781
1359645572247,1.58543
1359645632247,1.59030
1359645692247,1.57469
1359645752247,1.59010
1359645812247,1.57491
1359645872247,1.61324
1359645932247,1.59488
1359645992247,1.59499
1359646052247,1.58970
1359646112247,1.59903
1359646172247,1.60304
1359646232247,1.58255
1359646292247,1.58447
1359646352247,1.60651
1359646412247,1.57778
1359646472247,1.60504
1359646532247,1.61012
1359646592247,1.60998
1359646652247,1.57711
1359646712247,1.58676
1359646772247,1.58948
1359646832247,1.57670
1359646892247,1.62017
1359646952247,1.60225
1359647012247,1.60470
1359647072247,1.58647
1359647132247,1.60622
1359647192247,1.59231
1359647252247,1.58838
1359647312247,1.59436
1359647372247,1.78716
1359647432247,1.59557
1359647492247,1.58817
1359647552247,1.58967
1359647612247,1.58196
1359647672247,1.59645
1359647732247,1.59166
1359647792247,1.56130
1359647852247,1.58558
1359647912247,1.56183
1359647972247,1.59358
1359648032258,1.59637
1359648092258,1.60669
1359648152258,1.61047
1359648212258,1.58377
1359648272258,1.57870
1359648332258,1.58044
1359648392258,1.58590
1359648452258,1.57778
1359648512258,1.59491
1359648572258,1.58259
1359648632258,1.61265
1359648692258,1.57092
1359648752258,1.57964
1359648812258,1.57640
1359648872258,1.59334
1359648932258,1.59533
1359648992258,1.60283
1359649052258,1.58321
1359649112258,1.57709
1359649172258,1.59016
1359649232258,1.58453
1359649292258,1.58085
1359649352258,1.59604
1359649412258,1.60391
1359649472258,1.57488
1359649532258,1.56717
1359649592258,1.58946
1359649652258,1.59394
1359649712258,1.58905
1359649772258,1.58076
1359649832258,1.58788
1359649892258,1.59155
1359649952258,1.57299
1359650012258,1.57545
1359650072258,1.59813
1359650132258,1.57369
1359650192258,1.59022
1359650252258,1.57654
1359650312258,1.58365
1359650372258,1.59653
1359650432258,1.58738
1359650492258,1.60979
1359650552258,1.61127
1359650612258,1.59243
1359650672258,1.57072
1359650732258,1.58558
1359650792258,1.59018
1359650852258,1.57811
1359650912258,1.59689
1359650972258,1.57632
1359651032258,1.57685
1359651092258,1.59244
1359651152258,1.57865
1359651212258,1.57799
1359651272258,1.59942
1359651332258,1.59285
1359651392258,1.59544
1359651452258,1.59269
1359651512258,1.59095
1359651572258,1.57761
1359651632269,1.57520
1359651692269,1.59468
1359651752269,1.57578
1359651812269,1.58821
1359651872269,1.57832
1359651932269,1.60410
1359651992269,1.59828
1359652052269,1.60480
1359652112269,1.59988
1359652172269,1.58887
1359652232269,1.61097
1359652292269,1.59497
1359652352269,1.58755
1359652412269,1.60374
1359652472269,1.59858
1359652532269,1.58729
1359652592269,1.61323
1359652652269,1.61410
1359652712269,1.60243
1359652772269,1.60503
1359652832269,1.61660
1359652892269,1.62443
1359652952269,1.60643
1359653012269,1.61682
1359653072269,1.61454
1359653132269,1.60756
1359653192269,1.61249
1359653252269,1.62601
1359653312269,1.62659
1359653372269,1.60578
1359653432269,1.59730
1359653492269,1.61846
1359653552269,1.60355
1359653612269,1.60701
1359653672269,1.62215
1359653732269,1.61197
1359653792269,1.60309
1359653852269,1.62971
1359653912269,1.61042
1359653972269,1.60226
1359654032269,1.61872
1359654092269,1.63318
1359654152269,1.61048
1359654212269,1.60683
1359654272269,1.61852
1359654332269,1.60747
1359654392269,1.63145
1359654452269,1.61247
1359654512269,1.61909
1359654572269,1.64375
1359654632269,1.62892
1359654692269,1.61827
1359654752269,1.62818
1359654812269,1.60917
1359654872269,1.61264
1359654932269,1.62044
1359654992269,1.62281
1359655052269,1.62370
1359655112269,1.60415
1359655172269,1.56113
1359655232280,1.64314
1359655292280,1.62430
1359655352280,1.61435
1359655412280,1.60621
1359655472280,1.61186
1359655532280,1.62474
1359655592280,1.60791
1359655652280,1.61154
1359655712280,1.61944
1359655772280,1.63133